Time,TemperatureF,DewpointF,PressureIn,WindDirection,WindDirectionDegrees,WindSpeedMPH,WindSpeedGustMPH,Humidity,HourlyPrecipIn,Conditions,Clouds,dailyrainin,SoftwareType,DateUTC
2013-05-22 00:01:00,74.1,69.7,29.92,ESE,115,0.0,0.0,86,0.00,,---,0.00,VWS V13.01,2013-05-22 04:01:00,
2013-05-22 00:07:00,74.1,69.7,29.92,ESE,115,0.0,0.0,86,0.00,,---,0.00,VWS V13.01,2013-05-22 04:07:00,
2013-05-22 00:12:00,73.9,69.4,29.92,ESE,115,0.0,0.0,86,0.00,,---,0.00,VWS V13.01,2013-05-22 04:12:00,
2013-05-22 00:17:00,73.9,69.4,29.92,ESE,114,0.0,0.0,86,0.00,,---,0.00,VWS V13.01,2013-05-22 04:17:00,
2013-05-22 00:22:00,73.8,69.3,29.91,ESE,114,0.0,0.0,86,0.00,,---,0.00,VWS V13.01,2013-05-22 04:22:00,
2013-05-22 00:27:00,73.8,69.3,29.91,ESE,114,0.0,0.0,86,0.00,,---,0.00,VWS V13.01,2013-05-22 04:27:00,
2013-05-22 00:32:00,73.7,69.3,29.91,ESE,118,0.0,0.0,86,0.00,,---,0.00,VWS V13.01,2013-05-22 04:32:00,
2013-05-22 00:37:00,73.6,69.2,29.91,ESE,117,0.0,0.0,86,0.00,,---,0.00,VWS V13.01,2013-05-22 04:37:00,
2013-05-22 00:42:00,73.5,69.1,29.91,ESE,117,0.0,0.0,86,0.00,,---,0.00,VWS V13.01,2013-05-22 04:42:00,
2013-05-22 00:47:00,73.4,69.0,29.91,ESE,115,0.0,0.0,86,0.00,,---,0.00,VWS V13.01,2013-05-22 04:47:00,
2013-05-22 00:52:00,73.4,69.0,29.91,ESE,114,0.0,0.0,86,0.00,,---,0.00,VWS V13.01,2013-05-22 04:52:00,
2013-05-22 00:57:00,73.3,68.9,29.91,ESE,113,0.0,1.0,86,0.00,,---,0.00,VWS V13.01,2013-05-22 04:57:00,
2013-05-22 01:02:00,73.3,68.9,29.91,ESE,117,0.0,0.0,86,0.00,,---,0.00,VWS V13.01,2013-05-22 05:02:00,
2013-05-22 01:08:00,73.3,68.9,29.91,ESE,117,0.0,0.0,86,0.00,,---,0.00,VWS V13.01,2013-05-22 05:08:00,
2013-05-22 01:13:00,73.3,68.9,29.91,SE,126,0.0,0.0,86,0.00,,---,0.00,VWS V13.01,2013-05-22 05:13:00,
2013-05-22 01:18:00,73.3,68.9,29.91,SE,133,0.0,0.0,86,0.00,,---,0.00,VWS V13.01,2013-05-22 05:18:00,
2013-05-22 01:23:00,73.3,68.9,29.91,SE,133,0.0,0.0,86,0.00,,---,0.00,VWS V13.01,2013-05-22 05:23:00,
2013-05-22 01:28:00,73.3,68.9,29.91,SE,133,0.0,0.0,86,0.00,,---,0.00,VWS V13.01,2013-05-22 05:28:00,
2013-05-22 01:33:00,73.2,68.8,29.90,SE,132,0.0,0.0,86,0.00,,---,0.00,VWS V13.01,2013-05-22 05:33:00,
2013-05-22 01:38:00,73.1,68.7,29.90,SE,133,0.0,0.0,86,0.00,,---,0.00,VWS V13.01,2013-05-22 05:38:00,
2013-05-22 01:43:00,73.1,68.3,29.90,SE,133,0.0,0.0,85,0.00,,---,0.00,VWS V13.01,2013-05-22 05:43:00,
2013-05-22 01:48:00,73.0,68.2,29.90,SE,133,0.0,0.0,85,0.00,,---,0.00,VWS V13.01,2013-05-22 05:48:00,
2013-05-22 01:54:00,73.0,68.6,29.90,SE,132,0.0,0.0,86,0.00,,---,0.00,VWS V13.01,2013-05-22 05:54:00,
2013-05-22 01:59:00,73.0,68.6,29.90,SE,132,0.0,0.0,86,0.00,,---,0.00,VWS V13.01,2013-05-22 05:59:00,
2013-05-22 02:04:00,72.9,68.5,29.90,SE,132,0.0,0.0,86,0.00,,---,0.00,VWS V13.01,2013-05-22 06:04:00,
2013-05-22 02:09:00,72.9,68.5,29.89,SE,132,0.0,0.0,86,0.00,,---,0.00,VWS V13.01,2013-05-22 06:09:00,
2013-05-22 02:14:00,72.9,68.5,29.89,SE,132,0.0,0.0,86,0.00,,---,0.00,VWS V13.01,2013-05-22 06:14:00,
2013-05-22 02:19:00,72.9,68.1,29.89,SE,132,0.0,0.0,85,0.00,,---,0.00,VWS V13.01,2013-05-22 06:19:00,
2013-05-22 02:24:00,72.9,68.1,29.89,SE,132,0.0,0.0,85,0.00,,---,0.00,VWS V13.01,2013-05-22 06:24:00,
2013-05-22 02:29:00,72.9,68.1,29.89,SE,132,0.0,0.0,85,0.00,,---,0.00,VWS V13.01,2013-05-22 06:29:00,
2013-05-22 02:35:00,72.8,68.0,29.89,SE,132,0.0,0.0,85,0.00,,---,0.00,VWS V13.01,2013-05-22 06:35:00,
2013-05-22 02:40:00,72.8,68.0,29.88,SE,132,0.0,0.0,85,0.00,,---,0.00,VWS V13.01,2013-05-22 06:40:00,
2013-05-22 02:45:00,72.7,67.9,29.88,SE,132,0.0,0.0,85,0.00,,---,0.00,VWS V13.01,2013-05-22 06:45:00,
2013-05-22 02:50:00,72.7,68.3,29.88,SE,132,0.0,0.0,86,0.00,,---,0.00,VWS V13.01,2013-05-22 06:50:00,
2013-05-22 02:55:00,72.6,68.2,29.88,SE,132,0.0,0.0,86,0.00,,---,0.00,VWS V13.01,2013-05-22 06:55:00,
2013-05-22 03:00:00,72.5,68.1,29.88,SE,132,0.0,0.0,86,0.00,,---,0.00,VWS V13.01,2013-05-22 07:00:00,
2013-05-22 03:05:00,72.4,68.0,29.88,SE,132,0.0,0.0,86,0.00,,---,0.00,VWS V13.01,2013-05-22 07:05:00,
2013-05-22 03:10:00,72.3,67.9,29.88,SE,132,0.0,0.0,86,0.00,,---,0.00,VWS V13.01,2013-05-22 07:10:00,
2013-05-22 03:16:00,72.2,67.8,29.88,SE,132,0.0,0.0,86,0.00,,---,0.00,VWS V13.01,2013-05-22 07:16:00,
2013-05-22 03:21:00,72.2,67.8,29.88,SE,132,0.0,0.0,86,0.00,,---,0.00,VWS V13.01,2013-05-22 07:21:00,
2013-05-22 03:26:00,72.1,67.7,29.88,SE,132,0.0,0.0,86,0.00,,---,0.00,VWS V13.01,2013-05-22 07:26:00,
2013-05-22 03:31:00,72.1,67.7,29.87,SE,132,0.0,0.0,86,0.00,,---,0.00,VWS V13.01,2013-05-22 07:31:00,
2013-05-22 03:36:00,72.0,67.6,29.87,SE,132,0.0,0.0,86,0.00,,---,0.00,VWS V13.01,2013-05-22 07:36:00,
2013-05-22 03:41:00,72.0,67.6,29.88,SE,132,0.0,0.0,86,0.00,,---,0.00,VWS V13.01,2013-05-22 07:41:00,
2013-05-22 03:46:00,72.0,67.6,29.87,SE,132,0.0,0.0,86,0.00,,---,0.00,VWS V13.01,2013-05-22 07:46:00,
2013-05-22 03:52:00,72.0,67.6,29.87,SE,132,0.0,0.0,86,0.00,,---,0.00,VWS V13.01,2013-05-22 07:52:00,
2013-05-22 03:57:00,72.0,67.6,29.87,SE,132,0.0,0.0,86,0.00,,---,0.00,VWS V13.01,2013-05-22 07:57:00,
2013-05-22 04:02:00,72.0,67.6,29.87,SE,132,0.0,0.0,86,0.00,,---,0.00,VWS V13.01,2013-05-22 08:02:00,
2013-05-22 04:07:00,72.1,67.7,29.87,SE,132,0.0,0.0,86,0.00,,---,0.00,VWS V13.01,2013-05-22 08:07:00,
2013-05-22 04:12:00,72.2,67.8,29.87,SE,132,0.0,0.0,86,0.00,,---,0.00,VWS V13.01,2013-05-22 08:12:00,
2013-05-22 04:17:00,72.2,67.8,29.87,SE,132,0.0,0.0,86,0.00,,---,0.00,VWS V13.01,2013-05-22 08:17:00,
2013-05-22 04:22:00,72.2,67.8,29.87,SE,132,0.0,0.0,86,0.00,,---,0.00,VWS V13.01,2013-05-22 08:22:00,
2013-05-22 04:27:00,72.2,67.8,29.86,SE,132,0.0,0.0,86,0.00,,---,0.00,VWS V13.01,2013-05-22 08:27:00,
2013-05-22 04:32:00,72.2,67.8,29.87,SE,132,0.0,0.0,86,0.00,,---,0.00,VWS V13.01,2013-05-22 08:32:00,
2013-05-22 04:38:00,72.2,67.8,29.87,SE,132,0.0,0.0,86,0.00,,---,0.00,VWS V13.01,2013-05-22 08:38:00,
2013-05-22 04:43:00,72.2,67.8,29.87,SE,132,0.0,0.0,86,0.00,,---,0.00,VWS V13.01,2013-05-22 08:43:00,
2013-05-22 04:48:00,72.1,67.7,29.87,SE,132,0.0,0.0,86,0.00,,---,0.00,VWS V13.01,2013-05-22 08:48:00,
2013-05-22 04:53:00,72.1,67.7,29.87,SE,132,0.0,0.0,86,0.00,,---,0.00,VWS V13.01,2013-05-22 08:53:00,
2013-05-22 04:58:00,72.0,67.6,29.87,SE,132,0.0,0.0,86,0.00,,---,0.00,VWS V13.01,2013-05-22 08:58:00,
2013-05-22 05:03:00,72.0,67.9,29.87,SE,132,0.0,0.0,87,0.00,,---,0.00,VWS V13.01,2013-05-22 09:03:00,
2013-05-22 05:08:00,71.9,67.8,29.88,SE,132,0.0,0.0,87,0.00,,---,0.00,VWS V13.01,2013-05-22 09:08:00,
2013-05-22 05:13:00,71.8,67.7,29.88,SE,132,0.0,0.0,87,0.00,,---,0.00,VWS V13.01,2013-05-22 09:13:00,
2013-05-22 05:19:00,71.8,67.7,29.88,SE,132,0.0,0.0,87,0.00,,---,0.00,VWS V13.01,2013-05-22 09:19:00,
2013-05-22 05:24:00,71.7,67.6,29.87,SE,132,0.0,0.0,87,0.00,,---,0.00,VWS V13.01,2013-05-22 09:24:00,
2013-05-22 05:29:00,71.6,67.5,29.87,SE,132,0.0,0.0,87,0.00,,---,0.00,VWS V13.01,2013-05-22 09:29:00,
2013-05-22 05:34:00,71.5,67.4,29.87,SE,132,0.0,0.0,87,0.00,,---,0.00,VWS V13.01,2013-05-22 09:34:00,
2013-05-22 05:39:00,71.4,67.3,29.87,SE,132,0.0,0.0,87,0.00,,---,0.00,VWS V13.01,2013-05-22 09:39:00,
2013-05-22 05:44:00,71.3,67.2,29.87,SE,132,0.0,0.0,87,0.00,,---,0.00,VWS V13.01,2013-05-22 09:44:00,
2013-05-22 05:49:00,71.2,67.1,29.87,SE,132,0.0,0.0,87,0.00,,---,0.00,VWS V13.01,2013-05-22 09:49:00,
2013-05-22 05:55:00,71.2,67.1,29.88,SE,132,0.0,0.0,87,0.00,,---,0.00,VWS V13.01,2013-05-22 09:55:00,
2013-05-22 06:00:00,71.1,67.0,29.88,SE,132,0.0,0.0,87,0.00,,---,0.00,VWS V13.01,2013-05-22 10:00:00,
2013-05-22 06:05:00,71.1,67.0,29.87,SE,132,0.0,0.0,87,0.00,,---,0.00,VWS V13.01,2013-05-22 10:05:00,
2013-05-22 06:10:00,71.1,67.0,29.88,SE,132,0.0,0.0,87,0.00,,---,0.00,VWS V13.01,2013-05-22 10:10:00,
2013-05-22 06:15:00,71.1,67.4,29.88,SE,132,0.0,0.0,88,0.00,,---,0.00,VWS V13.01,2013-05-22 10:15:00,
2013-05-22 06:20:00,71.0,67.3,29.88,SE,132,0.0,0.0,88,0.00,,---,0.00,VWS V13.01,2013-05-22 10:20:00,
2013-05-22 06:25:00,71.0,67.3,29.89,SE,132,0.0,0.0,88,0.00,,---,0.00,VWS V13.01,2013-05-22 10:25:00,
2013-05-22 06:30:00,71.2,67.5,29.89,SE,132,0.0,0.0,88,0.00,,---,0.00,VWS V13.01,2013-05-22 10:30:00,
2013-05-22 06:35:00,71.2,67.5,29.89,SE,132,0.0,0.0,88,0.00,,---,0.00,VWS V13.01,2013-05-22 10:35:00,
2013-05-22 06:40:00,71.4,67.7,29.89,East,94,0.0,0.0,88,0.00,,---,0.00,VWS V13.01,2013-05-22 10:40:00,
2013-05-22 06:46:00,71.7,67.6,29.89,ESE,113,0.0,1.0,87,0.00,,---,0.00,VWS V13.01,2013-05-22 10:46:00,
2013-05-22 06:51:00,71.9,68.2,29.89,ESE,113,0.0,1.0,88,0.00,,---,0.00,VWS V13.01,2013-05-22 10:51:00,
2013-05-22 06:56:00,72.2,68.1,29.89,ESE,113,0.0,1.0,87,0.00,,---,0.00,VWS V13.01,2013-05-22 10:56:00,
2013-05-22 07:01:00,72.5,68.4,29.90,SE,134,0.0,0.0,87,0.00,,---,0.00,VWS V13.01,2013-05-22 11:01:00,
2013-05-22 07:06:00,72.7,68.6,29.90,SE,134,0.0,0.0,87,0.00,,---,0.00,VWS V13.01,2013-05-22 11:06:00,
2013-05-22 07:11:00,72.9,68.8,29.90,SE,140,0.0,0.0,87,0.00,,---,0.00,VWS V13.01,2013-05-22 11:11:00,
2013-05-22 07:16:00,73.1,69.0,29.90,SE,140,0.0,0.0,87,0.00,,---,0.00,VWS V13.01,2013-05-22 11:16:00,
2013-05-22 07:22:00,73.3,69.2,29.90,SSE,155,0.0,0.0,87,0.00,,---,0.00,VWS V13.01,2013-05-22 11:22:00,
2013-05-22 07:27:00,73.4,69.3,29.90,SSE,155,0.0,0.0,87,0.00,,---,0.00,VWS V13.01,2013-05-22 11:27:00,
2013-05-22 07:32:00,73.6,69.5,29.90,SSE,155,0.0,0.0,87,0.00,,---,0.00,VWS V13.01,2013-05-22 11:32:00,
2013-05-22 07:37:00,73.7,69.6,29.90,SSE,152,0.0,0.0,87,0.00,,---,0.00,VWS V13.01,2013-05-22 11:37:00,
2013-05-22 07:42:00,74.0,69.9,29.90,SE,143,0.0,0.0,87,0.00,,---,0.00,VWS V13.01,2013-05-22 11:42:00,
2013-05-22 07:47:00,74.2,70.1,29.90,SE,143,0.0,0.0,87,0.00,,---,0.00,VWS V13.01,2013-05-22 11:47:00,
2013-05-22 07:52:00,74.5,70.4,29.90,SE,143,0.0,0.0,87,0.00,,---,0.00,VWS V13.01,2013-05-22 11:52:00,
2013-05-22 07:57:00,74.9,70.4,29.90,SE,136,0.0,1.0,86,0.00,,---,0.00,VWS V13.01,2013-05-22 11:57:00,
2013-05-22 08:02:00,75.1,70.6,29.90,SE,136,0.0,0.0,86,0.00,,---,0.00,VWS V13.01,2013-05-22 12:02:00,
2013-05-22 08:07:00,75.3,70.8,29.90,SE,140,0.0,0.0,86,0.00,,---,0.00,VWS V13.01,2013-05-22 12:07:00,
2013-05-22 08:13:00,75.3,70.8,29.90,SE,140,0.0,0.0,86,0.00,,---,0.00,VWS V13.01,2013-05-22 12:13:00,
2013-05-22 08:18:00,75.3,70.5,29.90,SE,140,0.0,0.0,85,0.00,,---,0.00,VWS V13.01,2013-05-22 12:18:00,
2013-05-22 08:23:00,75.3,70.5,29.90,SE,140,0.0,0.0,85,0.00,,---,0.00,VWS V13.01,2013-05-22 12:23:00,
2013-05-22 08:28:00,75.4,70.6,29.91,SE,140,0.0,0.0,85,0.00,,---,0.00,VWS V13.01,2013-05-22 12:28:00,
2013-05-22 08:33:00,75.5,71.0,29.91,SE,140,0.0,0.0,86,0.00,,---,0.00,VWS V13.01,2013-05-22 12:33:00,
2013-05-22 08:38:00,75.6,71.1,29.91,SSE,152,0.0,0.0,86,0.00,,---,0.00,VWS V13.01,2013-05-22 12:38:00,
2013-05-22 08:43:00,75.8,71.3,29.91,SSE,150,0.0,0.0,86,0.00,,---,0.00,VWS V13.01,2013-05-22 12:43:00,
2013-05-22 08:48:00,76.0,71.2,29.91,SSE,150,0.0,0.0,85,0.00,,---,0.00,VWS V13.01,2013-05-22 12:48:00,
2013-05-22 08:54:00,76.1,71.3,29.92,SSE,150,0.0,0.0,85,0.00,,---,0.00,VWS V13.01,2013-05-22 12:54:00,
2013-05-22 08:59:00,76.1,71.3,29.92,SSE,153,0.0,0.0,85,0.00,,---,0.00,VWS V13.01,2013-05-22 12:59:00,
2013-05-22 09:04:00,76.2,71.4,29.92,SSE,153,0.0,0.0,85,0.00,,---,0.00,VWS V13.01,2013-05-22 13:04:00,
2013-05-22 09:09:00,76.2,71.4,29.92,SSE,153,0.0,0.0,85,0.00,,---,0.00,VWS V13.01,2013-05-22 13:09:00,
2013-05-22 09:14:00,76.4,71.6,29.92,SSE,153,0.0,0.0,85,0.00,,---,0.00,VWS V13.01,2013-05-22 13:14:00,
2013-05-22 09:19:00,76.5,71.7,29.92,SSE,153,0.0,0.0,85,0.00,,---,0.00,VWS V13.01,2013-05-22 13:19:00,
2013-05-22 09:24:00,76.5,71.7,29.92,SSE,152,0.0,0.0,85,0.00,,---,0.00,VWS V13.01,2013-05-22 13:24:00,
2013-05-22 09:29:00,76.5,71.7,29.92,SSE,152,0.0,0.0,85,0.00,,---,0.00,VWS V13.01,2013-05-22 13:29:00,
2013-05-22 09:34:00,76.4,71.2,29.92,SSE,152,0.0,0.0,84,0.00,,---,0.00,VWS V13.01,2013-05-22 13:34:00,
2013-05-22 09:40:00,76.5,71.3,29.92,SSE,153,0.0,0.0,84,0.00,,---,0.00,VWS V13.01,2013-05-22 13:40:00,
2013-05-22 09:45:00,76.6,71.4,29.92,SSE,153,0.0,0.0,84,0.00,,---,0.00,VWS V13.01,2013-05-22 13:45:00,
2013-05-22 09:50:00,76.9,71.7,29.92,SSE,154,0.0,0.0,84,0.00,,---,0.00,VWS V13.01,2013-05-22 13:50:00,
2013-05-22 09:55:00,77.5,72.3,29.92,SSE,156,0.0,0.0,84,0.00,,---,0.00,VWS V13.01,2013-05-22 13:55:00,
2013-05-22 10:00:00,77.9,72.3,29.93,SSE,156,0.0,0.0,83,0.00,,---,0.00,VWS V13.01,2013-05-22 14:00:00,
2013-05-22 10:05:00,78.8,72.5,29.92,SSE,166,0.0,0.0,81,0.00,,---,0.00,VWS V13.01,2013-05-22 14:05:00,
2013-05-22 10:10:00,79.8,73.1,29.93,South,188,0.0,5.0,80,0.00,,---,0.00,VWS V13.01,2013-05-22 14:10:00,
2013-05-22 10:15:00,80.3,73.6,29.93,South,182,0.0,5.0,80,0.00,,---,0.00,VWS V13.01,2013-05-22 14:15:00,
2013-05-22 10:21:00,80.2,73.1,29.93,South,180,0.0,5.0,79,0.00,,---,0.00,VWS V13.01,2013-05-22 14:21:00,
2013-05-22 10:26:00,79.8,72.7,29.93,SSE,167,0.0,5.0,79,0.00,,---,0.00,VWS V13.01,2013-05-22 14:26:00,
2013-05-22 10:31:00,79.7,72.6,29.93,South,185,0.0,0.0,79,0.00,,---,0.00,VWS V13.01,2013-05-22 14:31:00,
2013-05-22 10:36:00,79.9,72.8,29.93,SSE,165,0.0,0.0,79,0.00,,---,0.00,VWS V13.01,2013-05-22 14:36:00,
2013-05-22 10:41:00,79.8,72.7,29.93,SSE,165,0.0,6.0,79,0.00,,---,0.00,VWS V13.01,2013-05-22 14:41:00,
2013-05-22 10:46:00,79.8,72.3,29.93,WNW,298,0.0,6.0,78,0.00,,---,0.00,VWS V13.01,2013-05-22 14:46:00,
2013-05-22 10:51:00,79.9,72.8,29.93,WNW,302,0.0,6.0,79,0.00,,---,0.00,VWS V13.01,2013-05-22 14:51:00,
2013-05-22 10:56:00,80.4,73.3,29.94,SW,235,0.0,6.0,79,0.00,,---,0.00,VWS V13.01,2013-05-22 14:56:00,
2013-05-22 11:02:00,80.7,73.2,29.94,WSW,246,0.0,0.0,78,0.00,,---,0.00,VWS V13.01,2013-05-22 15:02:00,
2013-05-22 11:07:00,81.1,73.2,29.94,SSW,198,0.0,0.0,77,0.00,,---,0.00,VWS V13.01,2013-05-22 15:07:00,
2013-05-22 11:12:00,81.6,73.3,29.94,South,179,0.0,0.0,76,0.00,,---,0.00,VWS V13.01,2013-05-22 15:12:00,
2013-05-22 11:17:00,82.1,73.4,29.94,West,271,0.0,3.0,75,0.00,,---,0.00,VWS V13.01,2013-05-22 15:17:00,
2013-05-22 11:22:00,81.5,72.8,29.93,West,275,0.0,3.0,75,0.00,,---,0.00,VWS V13.01,2013-05-22 15:22:00,
2013-05-22 11:27:00,81.4,72.7,29.94,South,180,0.0,5.0,75,0.00,,---,0.00,VWS V13.01,2013-05-22 15:27:00,
2013-05-22 11:32:00,81.0,72.3,29.94,SSW,212,0.0,0.0,75,0.00,,---,0.00,VWS V13.01,2013-05-22 15:32:00,
2013-05-22 11:37:00,80.9,72.6,29.94,WNW,282,0.0,4.0,76,0.00,,---,0.00,VWS V13.01,2013-05-22 15:37:00,
2013-05-22 11:42:00,81.2,72.9,29.94,SSW,192,0.0,4.0,76,0.00,,---,0.00,VWS V13.01,2013-05-22 15:42:00,
2013-05-22 11:47:00,81.6,73.3,29.94,SW,230,0.0,4.0,76,0.00,,---,0.00,VWS V13.01,2013-05-22 15:47:00,
2013-05-22 11:53:00,82.1,73.4,29.93,South,171,0.0,4.0,75,0.00,,---,0.00,VWS V13.01,2013-05-22 15:53:00,
2013-05-22 11:58:00,82.0,73.3,29.94,SSW,209,0.0,5.0,75,0.00,,---,0.00,VWS V13.01,2013-05-22 15:58:00,
2013-05-22 12:03:00,82.3,73.2,29.94,WNW,286,0.0,0.0,74,0.00,,---,0.00,VWS V13.01,2013-05-22 16:03:00,
2013-05-22 12:08:00,82.2,73.1,29.94,SSE,165,0.0,4.0,74,0.00,,---,0.00,VWS V13.01,2013-05-22 16:08:00,
2013-05-22 12:13:00,82.4,73.3,29.94,WNW,292,0.0,5.0,74,0.00,,---,0.00,VWS V13.01,2013-05-22 16:13:00,
2013-05-22 12:18:00,82.7,73.2,29.93,South,184,0.0,5.0,73,0.00,,---,0.00,VWS V13.01,2013-05-22 16:18:00,
2013-05-22 12:23:00,82.5,73.8,29.93,WNW,289,0.0,5.0,75,0.00,,---,0.00,VWS V13.01,2013-05-22 16:23:00,
2013-05-22 12:28:00,82.5,73.4,29.93,WNW,288,5.0,6.0,74,0.00,,---,0.00,VWS V13.01,2013-05-22 16:28:00,
2013-05-22 12:33:00,82.0,73.3,29.93,West,262,0.0,4.0,75,0.00,,---,0.00,VWS V13.01,2013-05-22 16:33:00,
2013-05-22 12:38:00,81.7,72.6,29.93,WNW,284,0.0,6.0,74,0.00,,---,0.00,VWS V13.01,2013-05-22 16:38:00,
2013-05-22 12:43:00,81.8,72.7,29.93,WNW,292,0.0,6.0,74,0.00,,---,0.00,VWS V13.01,2013-05-22 16:43:00,
2013-05-22 12:48:00,81.8,72.7,29.93,WNW,288,0.0,6.0,74,0.00,,---,0.00,VWS V13.01,2013-05-22 16:48:00,
2013-05-22 12:54:00,82.1,72.6,29.93,WNW,292,0.0,6.0,73,0.00,,---,0.00,VWS V13.01,2013-05-22 16:54:00,
2013-05-22 12:59:00,82.8,73.7,29.93,WSW,245,0.0,6.0,74,0.00,,---,0.00,VWS V13.01,2013-05-22 16:59:00,
2013-05-22 13:04:00,83.3,73.8,29.93,WSW,244,0.0,1.0,73,0.00,,---,0.00,VWS V13.01,2013-05-22 17:04:00,
2013-05-22 13:09:00,83.1,73.1,29.92,West,262,0.0,6.0,72,0.00,,---,0.00,VWS V13.01,2013-05-22 17:09:00,
2013-05-22 13:14:00,82.6,72.7,29.92,West,262,3.0,6.0,72,0.00,,---,0.00,VWS V13.01,2013-05-22 17:14:00,
2013-05-22 13:19:00,82.8,73.3,29.92,West,277,0.0,6.0,73,0.00,,---,0.00,VWS V13.01,2013-05-22 17:19:00,
2013-05-22 13:24:00,82.9,72.9,29.92,West,269,0.0,6.0,72,0.00,,---,0.00,VWS V13.01,2013-05-22 17:24:00,
2013-05-22 13:29:00,82.8,72.9,29.92,WNW,296,0.0,6.0,72,0.00,,---,0.00,VWS V13.01,2013-05-22 17:29:00,
2013-05-22 13:34:00,83.0,73.9,29.92,West,276,1.0,6.0,74,0.00,,---,0.00,VWS V13.01,2013-05-22 17:34:00,
2013-05-22 13:40:00,83.0,73.1,29.92,NNW,329,0.0,6.0,72,0.00,,---,0.00,VWS V13.01,2013-05-22 17:40:00,
2013-05-22 13:45:00,83.4,73.0,29.92,WNW,284,0.0,6.0,71,0.00,,---,0.00,VWS V13.01,2013-05-22 17:45:00,
2013-05-22 13:50:00,83.4,73.4,29.91,WNW,302,0.0,7.0,72,0.00,,---,0.00,VWS V13.01,2013-05-22 17:50:00,
2013-05-22 13:55:00,83.4,73.0,29.91,North,349,0.0,7.0,71,0.00,,---,0.00,VWS V13.01,2013-05-22 17:55:00,
2013-05-22 14:00:00,84.0,73.6,29.91,WSW,244,0.0,0.0,71,0.00,,---,0.00,VWS V13.01,2013-05-22 18:00:00,
2013-05-22 14:05:00,83.8,73.0,29.91,West,277,0.0,6.0,70,0.00,,---,0.00,VWS V13.01,2013-05-22 18:05:00,
2013-05-22 14:10:00,84.0,73.6,29.90,West,279,3.0,7.0,71,0.00,,---,0.00,VWS V13.01,2013-05-22 18:10:00,
2013-05-22 14:15:00,83.8,73.4,29.91,West,277,0.0,8.0,71,0.00,,---,0.00,VWS V13.01,2013-05-22 18:15:00,
2013-05-22 14:21:00,84.2,73.4,29.91,WNW,283,0.0,8.0,70,0.00,,---,0.00,VWS V13.01,2013-05-22 18:21:00,
2013-05-22 14:26:00,83.7,73.3,29.91,West,273,2.0,8.0,71,0.00,,---,0.00,VWS V13.01,2013-05-22 18:26:00,
2013-05-22 14:31:00,83.4,73.0,29.90,WNW,298,9.0,9.0,71,0.00,,---,0.00,VWS V13.01,2013-05-22 18:31:00,
2013-05-22 14:36:00,83.9,73.9,29.90,NNW,335,0.0,9.0,72,0.00,,---,0.00,VWS V13.01,2013-05-22 18:36:00,
2013-05-22 14:41:00,84.4,73.6,29.90,West,279,0.0,9.0,70,0.00,,---,0.00,VWS V13.01,2013-05-22 18:41:00,
2013-05-22 14:46:00,83.7,72.9,29.90,WNW,282,6.0,9.0,70,0.00,,---,0.00,VWS V13.01,2013-05-22 18:46:00,
2013-05-22 14:51:00,83.2,72.8,29.90,West,267,0.0,9.0,71,0.00,,---,0.00,VWS V13.01,2013-05-22 18:51:00,
2013-05-22 14:56:00,83.6,73.2,29.90,WSW,251,0.0,9.0,71,0.00,,---,0.00,VWS V13.01,2013-05-22 18:56:00,
2013-05-22 15:01:00,83.6,73.2,29.89,West,268,6.0,6.0,71,0.00,,---,0.00,VWS V13.01,2013-05-22 19:01:00,
2013-05-22 15:07:00,83.3,72.9,29.89,WNW,282,2.0,7.0,71,0.00,,---,0.00,VWS V13.01,2013-05-22 19:07:00,
2013-05-22 15:12:00,83.0,72.6,29.89,West,276,0.0,9.0,71,0.00,,---,0.00,VWS V13.01,2013-05-22 19:12:00,
2013-05-22 15:17:00,83.5,73.5,29.89,WNW,284,0.0,9.0,72,0.00,,---,0.00,VWS V13.01,2013-05-22 19:17:00,
2013-05-22 15:22:00,83.6,73.2,29.89,WSW,244,1.0,9.0,71,0.00,,---,0.00,VWS V13.01,2013-05-22 19:22:00,
2013-05-22 15:27:00,83.5,73.5,29.88,North,5,0.0,9.0,72,0.00,,---,0.00,VWS V13.01,2013-05-22 19:27:00,
2013-05-22 15:32:00,84.3,73.5,29.89,WNW,298,3.0,3.0,70,0.00,,---,0.00,VWS V13.01,2013-05-22 19:32:00,
2013-05-22 15:37:00,83.9,73.1,29.88,West,281,0.0,9.0,70,0.00,,---,0.00,VWS V13.01,2013-05-22 19:37:00,
2013-05-22 15:42:00,83.3,72.1,29.88,West,276,0.0,9.0,69,0.00,,---,0.00,VWS V13.01,2013-05-22 19:42:00,
2013-05-22 15:47:00,83.4,72.6,29.88,West,270,0.0,9.0,70,0.00,,---,0.00,VWS V13.01,2013-05-22 19:47:00,
2013-05-22 15:52:00,83.5,72.7,29.88,WNW,298,0.0,9.0,70,0.00,,---,0.00,VWS V13.01,2013-05-22 19:52:00,
2013-05-22 15:57:00,83.8,73.0,29.88,WNW,291,0.0,10.0,70,0.00,,---,0.00,VWS V13.01,2013-05-22 19:57:00,
2013-05-22 16:02:00,83.5,73.1,29.88,WSW,258,0.0,4.0,71,0.00,,---,0.00,VWS V13.01,2013-05-22 20:02:00,
2013-05-22 16:07:00,83.4,72.6,29.87,WNW,290,0.0,7.0,70,0.00,,---,0.00,VWS V13.01,2013-05-22 20:07:00,
2013-05-22 16:13:00,83.6,72.8,29.87,West,260,4.0,7.0,70,0.00,,---,0.00,VWS V13.01,2013-05-22 20:13:00,
2013-05-22 16:18:00,83.1,72.3,29.87,West,281,0.0,9.0,70,0.00,,---,0.00,VWS V13.01,2013-05-22 20:18:00,
2013-05-22 16:23:00,83.0,71.8,29.87,West,265,0.0,10.0,69,0.00,,---,0.00,VWS V13.01,2013-05-22 20:23:00,
2013-05-22 16:28:00,82.9,72.1,29.86,WNW,298,0.0,10.0,70,0.00,,---,0.00,VWS V13.01,2013-05-22 20:28:00,
2013-05-22 16:33:00,82.9,72.5,29.86,West,271,2.0,4.0,71,0.00,,---,0.00,VWS V13.01,2013-05-22 20:33:00,
2013-05-22 16:38:00,83.3,72.5,29.86,North,5,0.0,6.0,70,0.00,,---,0.00,VWS V13.01,2013-05-22 20:38:00,
2013-05-22 16:43:00,83.4,72.6,29.86,West,267,0.0,11.0,70,0.00,,---,0.00,VWS V13.01,2013-05-22 20:43:00,
2013-05-22 16:48:00,83.1,72.3,29.86,WNW,292,0.0,11.0,70,0.00,,---,0.00,VWS V13.01,2013-05-22 20:48:00,
2013-05-22 16:53:00,82.8,72.0,29.86,West,273,0.0,12.0,70,0.00,,---,0.00,VWS V13.01,2013-05-22 20:53:00,
2013-05-22 16:58:00,82.9,72.1,29.86,NNW,342,0.0,12.0,70,0.00,,---,0.00,VWS V13.01,2013-05-22 20:58:00,
2013-05-22 17:04:00,83.4,72.2,29.86,NW,319,0.0,6.0,69,0.00,,---,0.00,VWS V13.01,2013-05-22 21:04:00,
2013-05-22 17:09:00,83.2,72.0,29.86,WNW,293,2.0,10.0,69,0.00,,---,0.00,VWS V13.01,2013-05-22 21:09:00,
2013-05-22 17:14:00,83.0,72.2,29.86,WNW,294,0.0,10.0,70,0.00,,---,0.00,VWS V13.01,2013-05-22 21:14:00,
2013-05-22 17:19:00,83.4,72.2,29.86,WNW,300,0.0,10.0,69,0.00,,---,0.00,VWS V13.01,2013-05-22 21:19:00,
2013-05-22 17:24:00,83.6,72.8,29.86,WNW,284,0.0,10.0,70,0.00,,---,0.00,VWS V13.01,2013-05-22 21:24:00,
2013-05-22 17:29:00,83.4,73.0,29.86,West,261,0.0,10.0,71,0.00,,---,0.00,VWS V13.01,2013-05-22 21:29:00,
2013-05-22 17:34:00,83.1,71.9,29.86,North,355,0.0,4.0,69,0.00,,---,0.00,VWS V13.01,2013-05-22 21:34:00,
2013-05-22 17:39:00,83.2,72.4,29.86,WNW,289,0.0,5.0,70,0.00,,---,0.00,VWS V13.01,2013-05-22 21:39:00,
2013-05-22 17:44:00,82.9,72.5,29.86,WNW,286,0.0,5.0,71,0.00,,---,0.00,VWS V13.01,2013-05-22 21:44:00,
2013-05-22 17:50:00,83.4,72.6,29.85,WNW,297,0.0,5.0,70,0.00,,---,0.00,VWS V13.01,2013-05-22 21:50:00,
2013-05-22 17:55:00,83.2,72.4,29.85,West,280,0.0,7.0,70,0.00,,---,0.00,VWS V13.01,2013-05-22 21:55:00,
2013-05-22 18:00:00,83.3,72.5,29.86,West,267,0.0,4.0,70,0.00,,---,0.00,VWS V13.01,2013-05-22 22:00:00,
2013-05-22 18:05:00,83.1,72.3,29.86,North,5,1.0,7.0,70,0.00,,---,0.00,VWS V13.01,2013-05-22 22:05:00,
2013-05-22 18:10:00,82.9,72.5,29.86,WNW,295,0.0,7.0,71,0.00,,---,0.00,VWS V13.01,2013-05-22 22:10:00,
2013-05-22 18:15:00,82.7,72.3,29.86,NW,312,0.0,7.0,71,0.00,,---,0.00,VWS V13.01,2013-05-22 22:15:00,
2013-05-22 18:20:00,82.6,72.2,29.86,NNW,345,0.0,7.0,71,0.00,,---,0.00,VWS V13.01,2013-05-22 22:20:00,
2013-05-22 18:25:00,82.0,72.1,29.86,WNW,303,1.0,7.0,72,0.00,,---,0.00,VWS V13.01,2013-05-22 22:25:00,
2013-05-22 18:30:00,81.8,72.3,29.87,West,275,0.0,0.0,73,0.00,,---,0.00,VWS V13.01,2013-05-22 22:30:00,
2013-05-22 18:36:00,81.9,72.4,29.87,NW,317,0.0,5.0,73,0.00,,---,0.00,VWS V13.01,2013-05-22 22:36:00,
2013-05-22 18:41:00,81.8,72.3,29.87,North,349,0.0,5.0,73,0.00,,---,0.00,VWS V13.01,2013-05-22 22:41:00,
2013-05-22 18:46:00,82.3,72.4,29.87,North,360,0.0,5.0,72,0.00,,---,0.00,VWS V13.01,2013-05-22 22:46:00,
2013-05-22 18:51:00,82.2,72.3,29.87,WNW,294,0.0,5.0,72,0.00,,---,0.00,VWS V13.01,2013-05-22 22:51:00,
2013-05-22 18:56:00,82.2,71.9,29.87,North,360,0.0,6.0,71,0.00,,---,0.00,VWS V13.01,2013-05-22 22:56:00,
2013-05-22 19:01:00,82.1,71.8,29.87,NNW,344,0.0,0.0,71,0.00,,---,0.00,VWS V13.01,2013-05-22 23:01:00,
2013-05-22 19:06:00,82.0,72.1,29.87,WNW,286,0.0,0.0,72,0.00,,---,0.00,VWS V13.01,2013-05-22 23:06:00,
2013-05-22 19:11:00,81.2,71.3,29.88,West,266,0.0,1.0,72,0.00,,---,0.00,VWS V13.01,2013-05-22 23:11:00,
2013-05-22 19:16:00,80.7,71.2,29.87,NNW,345,0.0,1.0,73,0.00,,---,0.00,VWS V13.01,2013-05-22 23:16:00,
2013-05-22 19:22:00,80.4,71.8,29.87,NNW,342,0.0,1.0,75,0.00,,---,0.00,VWS V13.01,2013-05-22 23:22:00,
2013-05-22 19:27:00,80.0,71.0,29.88,West,261,0.0,1.0,74,0.00,,---,0.00,VWS V13.01,2013-05-22 23:27:00,
2013-05-22 19:32:00,80.1,71.1,29.88,NNE,23,0.0,0.0,74,0.00,,---,0.00,VWS V13.01,2013-05-22 23:32:00,
2013-05-22 19:37:00,80.1,71.1,29.88,North,5,0.0,5.0,74,0.00,,---,0.00,VWS V13.01,2013-05-22 23:37:00,
2013-05-22 19:42:00,80.0,71.4,29.88,North,5,0.0,5.0,75,0.00,,---,0.00,VWS V13.01,2013-05-22 23:42:00,
2013-05-22 19:47:00,79.9,71.3,29.88,North,355,0.0,5.0,75,0.00,,---,0.00,VWS V13.01,2013-05-22 23:47:00,
2013-05-22 19:52:00,79.6,71.0,29.88,NNW,346,0.0,5.0,75,0.00,,---,0.00,VWS V13.01,2013-05-22 23:52:00,
2013-05-22 19:58:00,79.3,71.1,29.88,NNW,346,0.0,5.0,76,0.00,,---,0.00,VWS V13.01,2013-05-22 23:58:00,
2013-05-22 20:03:00,78.9,71.1,29.88,North,355,0.0,0.0,77,0.00,,---,0.00,VWS V13.01,2013-05-23 00:03:00,
2013-05-22 20:08:00,78.7,70.9,29.88,NNW,327,0.0,1.0,77,0.00,,---,0.00,VWS V13.01,2013-05-23 00:08:00,
2013-05-22 20:13:00,78.5,71.1,29.89,NNW,327,0.0,1.0,78,0.00,,---,0.00,VWS V13.01,2013-05-23 00:13:00,
2013-05-22 20:18:00,78.4,71.0,29.89,NNW,327,0.0,1.0,78,0.00,,---,0.00,VWS V13.01,2013-05-23 00:18:00,
2013-05-22 20:23:00,78.1,70.7,29.89,NNW,327,0.0,1.0,78,0.00,,---,0.00,VWS V13.01,2013-05-23 00:23:00,
2013-05-22 20:28:00,78.0,70.6,29.88,NNW,327,0.0,1.0,78,0.00,,---,0.00,VWS V13.01,2013-05-23 00:28:00,
2013-05-22 20:33:00,77.9,70.5,29.88,NNW,327,0.0,0.0,78,0.00,,---,0.00,VWS V13.01,2013-05-23 00:33:00,
2013-05-22 20:39:00,77.8,70.8,29.88,NNW,327,0.0,0.0,79,0.00,,---,0.00,VWS V13.01,2013-05-23 00:39:00,
2013-05-22 20:44:00,77.7,70.7,29.88,NNW,327,0.0,0.0,79,0.00,,---,0.00,VWS V13.01,2013-05-23 00:44:00,
2013-05-22 20:49:00,77.6,70.9,29.89,NNW,327,0.0,0.0,80,0.00,,---,0.00,VWS V13.01,2013-05-23 00:49:00,
2013-05-22 20:54:00,77.5,70.8,29.89,NNW,332,0.0,0.0,80,0.00,,---,0.00,VWS V13.01,2013-05-23 00:54:00,
2013-05-22 20:59:00,77.5,70.8,29.89,NNW,332,0.0,0.0,80,0.00,,---,0.00,VWS V13.01,2013-05-23 00:59:00,
2013-05-22 21:04:00,77.4,70.8,29.89,NNW,332,0.0,0.0,80,0.00,,---,0.00,VWS V13.01,2013-05-23 01:04:00,
2013-05-22 21:09:00,77.3,70.7,29.89,NNW,332,0.0,0.0,80,0.00,,---,0.00,VWS V13.01,2013-05-23 01:09:00,
2013-05-22 21:14:00,77.2,70.6,29.89,NNW,332,0.0,0.0,80,0.00,,---,0.00,VWS V13.01,2013-05-23 01:14:00,
2013-05-22 21:19:00,77.1,70.8,29.89,NNW,332,0.0,0.0,81,0.00,,---,0.00,VWS V13.01,2013-05-23 01:19:00,
2013-05-22 21:25:00,77.0,70.7,29.89,NNW,335,0.0,0.0,81,0.00,,---,0.00,VWS V13.01,2013-05-23 01:25:00,
2013-05-22 21:30:00,76.8,70.5,29.89,NNW,335,0.0,0.0,81,0.00,,---,0.00,VWS V13.01,2013-05-23 01:30:00,
2013-05-22 21:35:00,76.6,70.3,29.89,NNW,335,0.0,0.0,81,0.00,,---,0.00,VWS V13.01,2013-05-23 01:35:00,
2013-05-22 21:40:00,76.4,70.5,29.89,NNW,335,0.0,0.0,82,0.00,,---,0.00,VWS V13.01,2013-05-23 01:40:00,
2013-05-22 21:45:00,76.3,70.4,29.89,NNW,335,0.0,0.0,82,0.00,,---,0.00,VWS V13.01,2013-05-23 01:45:00,
2013-05-22 21:50:00,76.2,70.3,29.89,NNW,335,0.0,0.0,82,0.00,,---,0.00,VWS V13.01,2013-05-23 01:50:00,
2013-05-22 21:55:00,76.0,70.1,29.89,NNW,335,0.0,0.0,82,0.00,,---,0.00,VWS V13.01,2013-05-23 01:55:00,
2013-05-22 22:00:00,75.8,69.9,29.89,NNW,335,0.0,0.0,82,0.00,,---,0.00,VWS V13.01,2013-05-23 02:00:00,
2013-05-22 22:05:00,75.7,70.2,29.89,NNW,335,0.0,0.0,83,0.00,,---,0.00,VWS V13.01,2013-05-23 02:05:00,
2013-05-22 22:11:00,75.4,69.9,29.90,NNW,335,0.0,0.0,83,0.00,,---,0.00,VWS V13.01,2013-05-23 02:11:00,
2013-05-22 22:16:00,75.3,69.8,29.90,NNW,335,0.0,0.0,83,0.00,,---,0.00,VWS V13.01,2013-05-23 02:16:00,
2013-05-22 22:21:00,75.2,70.0,29.90,NNW,335,0.0,0.0,84,0.00,,---,0.00,VWS V13.01,2013-05-23 02:21:00,
2013-05-22 22:26:00,75.0,69.8,29.90,NNW,335,0.0,0.0,84,0.00,,---,0.00,VWS V13.01,2013-05-23 02:26:00,
2013-05-22 22:31:00,74.8,70.0,29.91,NNW,335,0.0,0.0,85,0.00,,---,0.00,VWS V13.01,2013-05-23 02:31:00,
2013-05-22 22:36:00,74.7,69.9,29.91,NNW,335,0.0,0.0,85,0.00,,---,0.00,VWS V13.01,2013-05-23 02:36:00,
2013-05-22 22:41:00,74.7,69.9,29.91,NNW,335,0.0,0.0,85,0.00,,---,0.00,VWS V13.01,2013-05-23 02:41:00,
2013-05-22 22:46:00,74.7,69.9,29.91,NNW,335,0.0,0.0,85,0.00,,---,0.00,VWS V13.01,2013-05-23 02:46:00,
2013-05-22 22:52:00,74.8,70.0,29.91,NNW,335,0.0,0.0,85,0.00,,---,0.00,VWS V13.01,2013-05-23 02:52:00,
2013-05-22 22:57:00,74.8,70.0,29.91,NNW,335,0.0,0.0,85,0.00,,---,0.00,VWS V13.01,2013-05-23 02:57:00,
2013-05-22 23:02:00,74.8,70.0,29.91,NNW,335,0.0,0.0,85,0.00,,---,0.00,VWS V13.01,2013-05-23 03:02:00,
2013-05-22 23:07:00,74.8,70.0,29.91,NNW,335,0.0,0.0,85,0.00,,---,0.00,VWS V13.01,2013-05-23 03:07:00,
2013-05-22 23:12:00,74.8,70.0,29.91,NNW,335,0.0,0.0,85,0.00,,---,0.00,VWS V13.01,2013-05-23 03:12:00,
2013-05-22 23:17:00,74.9,70.1,29.91,NNW,335,0.0,0.0,85,0.00,,---,0.00,VWS V13.01,2013-05-23 03:17:00,
2013-05-22 23:22:00,74.9,70.1,29.91,NNW,335,0.0,0.0,85,0.00,,---,0.00,VWS V13.01,2013-05-23 03:22:00,
2013-05-22 23:27:00,74.9,70.1,29.91,NNW,335,0.0,0.0,85,0.00,,---,0.00,VWS V13.01,2013-05-23 03:27:00,
2013-05-22 23:33:00,75.0,70.2,29.90,NNW,335,0.0,0.0,85,0.00,,---,0.00,VWS V13.01,2013-05-23 03:33:00,
2013-05-22 23:38:00,75.1,69.9,29.90,NNW,335,0.0,0.0,84,0.00,,---,0.00,VWS V13.01,2013-05-23 03:38:00,
2013-05-22 23:43:00,75.0,69.8,29.90,NNW,335,0.0,0.0,84,0.00,,---,0.00,VWS V13.01,2013-05-23 03:43:00,
2013-05-22 23:48:00,75.0,70.2,29.90,NNW,335,0.0,0.0,85,0.00,,---,0.00,VWS V13.01,2013-05-23 03:48:00,
2013-05-22 23:53:00,74.9,70.1,29.90,NNW,335,0.0,0.0,85,0.00,,---,0.00,VWS V13.01,2013-05-23 03:53:00,
2013-05-22 23:58:00,74.8,70.0,29.90,NNW,335,0.0,0.0,85,0.00,,---,0.00,VWS V13.01,2013-05-23 03:58:00,